This demonstration page uses our WeatherBlox Daily Observations layout. Learn more.

Left ArrowRight Arrow

Hourly Observations for April 1, 2017

Temp ( °F °C ) Dew Point ( °F °C ) Humidity (%) Winds ( mph kmh ) Pressure ( in mb ) Visibility ( mi km ) Precip ( " mm )
12:15 am 00:15 Cloudy 45 7 45 7 100 100 N N/A 29.68 1005 7 11 N/A
12:35 am 00:35 Cloudy with Mist and Fog 45 7 45 7 100 100 N N/A 29.68 1005 5 8 N/A
12:55 am 00:55 Cloudy with Mist and Fog 45 7 45 7 100 100 N N/A 29.68 1005 5 8 N/A
1:15 am 01:15 Cloudy with Mist and Fog 45 7 45 7 100 100 N 5 7 29.68 1005 5 8 N/A
1:35 am 01:35 Cloudy with Light Rain 45 7 45 7 100 100 N 6 9 29.68 1005 5 8 N/A
1:55 am 01:55 Cloudy with Light Rain 45 7 45 7 100 100 NNE 5 7 29.68 1005 5 8 0.01 0.25
2:15 am 02:15 Cloudy with Drizzle 45 7 45 7 100 100 NNE 3 6 29.68 1005 4 6 N/A
2:35 am 02:35 Cloudy with Mist and Fog 45 7 45 7 100 100 N N/A 29.68 1005 4 6 N/A
2:55 am 02:55 Cloudy with Mist and Fog 45 7 45 7 100 100 N 5 7 29.71 1006 4 6 N/A
3:15 am 03:15 Cloudy with Mist and Fog 45 7 45 7 100 100 N 5 7 29.71 1006 5 8 N/A
3:35 am 03:35 Cloudy with Mist and Fog 46 8 46 8 100 100 N 5 7 29.71 1006 4 6 N/A
3:55 am 03:55 Cloudy with Drizzle 46 8 46 8 100 100 N 6 9 29.74 1007 4 6 N/A
4:15 am 04:15 Cloudy with Mist and Fog 46 8 46 8 100 100 N 3 6 29.74 1007 5 8 N/A
4:35 am 04:35 Cloudy with Mist and Fog 46 8 46 8 100 100 NNE 3 6 29.74 1007 4 6 N/A
4:55 am 04:55 Cloudy with Mist and Fog 46 8 46 8 100 100 N N/A 29.77 1008 4 6 N/A
5:15 am 05:15 Cloudy with Mist and Fog 46 8 46 8 100 100 N 5 7 29.77 1008 5 8 N/A
5:35 am 05:35 Cloudy 46 8 46 8 100 100 N 7 11 29.77 1008 7 11 N/A
5:55 am 05:55 Cloudy 46 8 46 8 100 100 NNE 8 13 29.80 1009 10 16 N/A
6:15 am 06:15 Cloudy 48 9 46 8 94 94 NNE 7 11 29.80 1009 10 16 N/A
6:35 am 06:35 Cloudy 48 9 46 8 94 94 N 6 9 29.83 1010 10 16 N/A
6:55 am 06:55 Cloudy 48 9 46 8 94 94 N 3 6 29.83 1010 10 16 N/A
7:15 am 07:15 Cloudy 46 8 46 8 100 100 N N/A 29.83 1010 10 16 N/A
7:35 am 07:35 Cloudy 46 8 46 8 100 100 NW 6 9 29.88 1012 10 16 N/A
7:55 am 07:55 Cloudy 48 9 46 8 94 94 WNW 6 9 29.85 1011 7 11 N/A
8:15 am 08:15 Cloudy 50 10 50 10 100 100 NW 9 15 29.85 1011 10 16 N/A
8:35 am 08:35 Cloudy 52 11 50 10 94 94 NW 10 17 29.88 1012 10 16 N/A
8:55 am 08:55 Cloudy 52 11 48 9 88 88 NW 12 19 29.88 1012 10 16 N/A
9:15 am 09:15 Cloudy 52 11 46 8 82 82 NW 18 30 29.88 1012 10 16 N/A
9:35 am 09:35 Cloudy 54 12 46 8 77 77 NW 13 20 29.88 1012 10 16 N/A
9:55 am 09:55 Cloudy 52 11 45 7 77 77 NNW 18 30 29.88 1012 10 16 N/A
10:15 am 10:15 Cloudy 54 12 45 7 72 72 NNW 16 26 29.91 1013 10 16 N/A
10:35 am 10:35 Cloudy 52 11 45 7 77 77 NNW 18 30 29.91 1013 10 16 N/A
10:55 am 10:55 Cloudy 54 12 45 7 72 72 NNW 17 28 29.91 1013 10 16 N/A
11:15 am 11:15 Cloudy 54 12 46 8 77 77 NNW 23 37 29.91 1013 10 16 N/A
11:35 am 11:35 Cloudy 54 12 45 7 72 72 NNW 16 26 29.94 1014 10 16 N/A
11:55 am 11:55 Cloudy 55 13 46 8 72 72 NW 21 33 29.94 1014 10 16 N/A
12:15 pm 12:15 Cloudy 54 12 45 7 72 72 NW 21 33 29.94 1014 10 16 N/A
12:35 pm 12:35 Cloudy 55 13 45 7 67 67 NW 20 31 29.94 1014 10 16 N/A
12:55 pm 12:55 Cloudy 55 13 45 7 67 67 NNW 24 39 29.94 1014 10 16 N/A
1:15 pm 13:15 Cloudy 55 13 43 6 63 63 NNW 20 31 29.97 1015 10 16 N/A
1:35 pm 13:35 Cloudy 55 13 45 7 67 67 NNW 15 24 29.94 1014 10 16 N/A
1:55 pm 13:55 Cloudy 54 12 45 7 72 72 NW 16 26 29.97 1015 10 16 N/A
2:15 pm 14:15 Cloudy 55 13 43 6 63 63 NNW 21 33 29.97 1015 10 16 N/A
2:35 pm 14:35 Cloudy 55 13 45 7 67 67 NW 16 26 29.97 1015 10 16 N/A
2:55 pm 14:55 Cloudy 55 13 45 7 67 67 NW 17 28 29.97 1015 10 16 N/A
3:15 pm 15:15 Mostly Cloudy 57 14 45 7 63 63 NNW 21 33 29.97 1015 10 16 N/A
3:35 pm 15:35 Partly Cloudy 57 14 45 7 63 63 NNW 24 39 29.97 1015 10 16 N/A
3:55 pm 15:55 Mostly Cloudy 59 15 45 7 59 59 NW 21 33 29.97 1015 10 16 N/A
4:15 pm 16:15 Partly Cloudy 57 14 45 7 63 63 NW 17 28 29.97 1015 10 16 N/A
4:35 pm 16:35 Partly Cloudy 55 13 43 6 63 63 NNW 21 33 29.97 1015 10 16 N/A
4:55 pm 16:55 Mostly Cloudy 55 13 43 6 63 63 NW 16 26 30.00 1016 10 16 N/A
5:15 pm 17:15 Cloudy 55 13 43 6 63 63 NW 14 22 30.00 1016 10 16 N/A
5:35 pm 17:35 Cloudy 54 12 43 6 67 67 NW 18 30 30.00 1016 10 16 N/A
5:55 pm 17:55 Cloudy 54 12 43 6 67 67 NW 18 30 30.03 1017 10 16 N/A
6:15 pm 18:15 Cloudy 54 12 41 5 63 63 NNW 18 30 30.03 1017 10 16 N/A
6:35 pm 18:35 Cloudy 54 12 41 5 63 63 N 17 28 30.06 1018 10 16 N/A
6:55 pm 18:55 Cloudy 52 11 41 5 67 67 NNW 21 33 30.09 1019 10 16 N/A
7:15 pm 19:15 Cloudy 50 10 41 5 71 71 NNW 22 35 30.12 1020 10 16 N/A
7:35 pm 19:35 Cloudy 50 10 41 5 71 71 NNW 16 26 30.12 1020 10 16 N/A
7:55 pm 19:55 Cloudy 50 10 41 5 71 71 N 18 30 30.15 1021 10 16 N/A
8:15 pm 20:15 Cloudy 50 10 41 5 71 71 NNW 14 22 30.15 1021 10 16 N/A
8:35 pm 20:35 Cloudy 50 10 41 5 71 71 N 6 9 30.15 1021 10 16 N/A
8:55 pm 20:55 Cloudy 50 10 41 5 71 71 NNW 14 22 30.15 1021 10 16 N/A
9:15 pm 21:15 Cloudy 50 10 41 5 71 71 NNW 6 9 30.15 1021 10 16 N/A
9:35 pm 21:35 Cloudy 50 10 41 5 71 71 N 9 15 30.15 1021 10 16 N/A
9:55 pm 21:55 Cloudy 50 10 41 5 71 71 N 10 17 30.15 1021 10 16 N/A
10:15 pm 22:15 Cloudy 50 10 41 5 71 71 NNW 8 13 30.15 1021 10 16 N/A
10:35 pm 22:35 Cloudy 50 10 41 5 71 71 N 10 17 30.18 1022 10 16 N/A
10:55 pm 22:55 Cloudy 50 10 39 4 67 67 N 9 15 30.18 1022 10 16 N/A
11:15 pm 23:15 Cloudy 50 10 39 4 67 67 N 10 17 30.18 1022 10 16 N/A
11:35 pm 23:35 Cloudy 48 9 39 4 71 71 N 12 19 30.18 1022 10 16 N/A
11:55 pm 23:55 Cloudy 48 9 39 4 71 71 N 10 17 30.18 1022 10 16 N/A

Powered by AerisWeather